Location: Chandler
(33.3060°N, 111.8410°W)
Time: 07:00:35
(UTC-07:00)

Amateur Radio Satellites - All Passes

Search period start: 01 November 2014 06:30
Search period end: 02 November 2014 06:30
Location: Chandler, 33.3060°N, 111.8410°W

Satellite Date Start Highest point End Downlink Frequencies (MHz)
Time Altitude Azimuth
PANSAT 01 Nov 06:38:01 06:41:23 29° 192° (SSW) 06:44:44 not established
Hamsat 01 Nov 06:41:37 06:45:36 41° 286° (WNW) 06:49:36 145.90 MHz
AO-7 01 Nov 06:42:44 06:48:21 21° 303° (WNW) 06:54:00 29.400 - 29.500 MHz
SO-67 01 Nov 06:56:36 06:59:33 26° 97° (E) 07:02:28 435.3500 MHz FM
STRAND 1 01 Nov 07:35:18 07:39:19 23° 264° (W) 07:43:21 ?
MaSat-1 01 Nov 07:42:26 07:44:45 48° 250° (WSW) 07:47:01 437.345 MHz
JAS-2 01 Nov 08:09:01 08:11:18 12° 304° (WNW) 08:13:35 435.800 - 435.900 CW/SSB, 435.910 FM
HO-68 01 Nov 08:12:21 08:17:17 20° 94° (E) 08:22:10 435.675 MHz FM
RS-15 01 Nov 08:15:10 08:23:33 25° 257° (WSW) 08:32:15 29.354 - 29.394 USB, Beacon 29.352 USB
PANSAT 01 Nov 08:19:35 08:21:00 12° 203° (SSW) 08:22:26 not established
ISS 01 Nov 08:21:07 08:24:04 31° 130° (SE) 08:27:02 145.800 FM
SO-67 01 Nov 08:30:41 08:32:13 13° 290° (WNW) 08:33:44 435.3500 MHz FM
Oscar 11 01 Nov 09:26:42 09:30:13 24° 96° (E) 09:33:43 145.825 FM, Beacon 2401.500 USB
SO-50 01 Nov 09:34:45 09:38:23 25° 111° (ESE) 09:42:07 436.795 FM
PCSat 01 Nov 09:46:46 09:48:30 11° 48° (NE) 09:50:15 145.825 MHz
FUNcube-1 01 Nov 09:46:49 09:49:17 15° 94° (E) 09:51:43 145.950 - 145.970 MHz USB
KITSAT 1 01 Nov 09:47:19 09:55:09 57° 111° (ESE) 10:03:00 435.175 FM
ISS 01 Nov 09:58:11 10:00:47 21° 325° (NW) 10:03:23 145.800 FM
HO-68 01 Nov 09:58:16 10:05:22 64° 289° (WNW) 10:12:25 435.675 MHz FM
UKube-1 01 Nov 10:28:02 10:32:20 58° 285° (WNW) 10:36:35 145.840 MHz, 145.915 MHz
ZACube-1 01 Nov 10:39:01 10:43:11 73° 101° (ESE) 10:47:18 437.345 MHz
Oscar 11 01 Nov 11:02:53 11:06:15 23° 290° (WNW) 11:09:36 145.825 FM, Beacon 2401.500 USB
Sapphire 01 Nov 11:05:46 11:11:04 51° 61° (ENE) 11:16:19 437.095 MHz 1200 baud AX-25 AFSK
SO-50 01 Nov 11:14:58 11:18:48 27° 306° (NW) 11:22:44 436.795 FM
FUNcube-1 01 Nov 11:22:00 11:25:43 32° 287° (WNW) 11:29:23 145.950 - 145.970 MHz USB
PCSat 01 Nov 11:27:13 11:32:40 88° 65° (ENE) 11:38:04 145.825 MHz
KITSAT 1 01 Nov 11:44:03 11:50:53 30° 309° (NW) 11:57:45 435.175 FM
UOSAT-12 01 Nov 11:51:49 11:56:22 64° 116° (ESE) 12:01:01 437.025 FM, 437.400 FM
JAS-1B 01 Nov 11:55:50 11:58:14 13° 62° (ENE) 12:00:38 435.800 - 435.900 CW/SSB
Oscar 19 01 Nov 12:29:16 12:33:33 27° 69° (ENE) 12:37:50 437.125 CW, 437.150 USB
Sapphire 01 Nov 12:50:36 12:53:59 17° 256° (WSW) 12:57:23 437.095 MHz 1200 baud AX-25 AFSK
AO-27 01 Nov 13:08:27 13:12:46 27° 69° (ENE) 13:17:05 436.795 MHz FM
Oscar 16 01 Nov 13:15:29 13:20:39 85° 76° (ENE) 13:25:48 437.025 USB, Beacon 2401.1428
Gurwin Techsat 1B 01 Nov 13:30:48 13:34:51 23° 68° (ENE) 13:38:55 435.225 FM
UOSAT-12 01 Nov 13:34:33 13:36:56 14° 312° (NW) 13:39:21 437.025 FM, 437.400 FM
TMSAT-1 01 Nov 13:36:54 13:40:31 19° 66° (ENE) 13:44:08 436.925 FM
AO-Echo 01 Nov 13:41:06 13:46:02 75° 76° (ENE) 13:51:10 ?
JAS-1B 01 Nov 13:42:30 13:48:18 65° 258° (WSW) 13:53:57 435.800 - 435.900 CW/SSB
Uribyol 2 01 Nov 13:50:30 13:55:42 76° 75° (ENE) 14:00:56 436.500 FM
AO-7 01 Nov 13:55:38 13:59:05 13° 53° (NE) 14:02:31 29.400 - 29.500 MHz
ITAMSAT 1 01 Nov 13:58:46 14:03:59 86° 76° (ENE) 14:09:14 435.822 SSB
Saudisat 1A 01 Nov 14:01:37 14:05:48 40° 57° (ENE) 14:09:57 436.775 MHz
Oscar 19 01 Nov 14:08:22 14:12:45 28° 263° (W) 14:17:09 437.125 CW, 437.150 USB
AO-27 01 Nov 14:47:35 14:52:06 30° 263° (W) 14:56:40 436.795 MHz FM
Gurwin Techsat 1B 01 Nov 15:09:41 15:14:32 37° 262° (W) 15:19:26 435.225 FM
TMSAT-1 01 Nov 15:14:59 15:20:02 45° 261° (W) 15:25:07 436.925 FM
Uosat F 01 Nov 15:34:10 15:38:41 35° 71° (ENE) 15:43:14 435.120 FM
AO-7 01 Nov 15:42:13 15:50:26 74° 71° (ENE) 15:58:41 29.400 - 29.500 MHz
Saudisat 1A 01 Nov 15:42:20 15:44:59 16° 251° (WSW) 15:47:38 436.775 MHz
JAS-2 01 Nov 16:27:26 16:33:03 36° 67° (ENE) 16:39:19 435.800 - 435.900 CW/SSB, 435.910 FM
ISS 01 Nov 16:29:11 16:32:30 65° 43° (NE) 16:35:48 145.800 FM
Oscar 10/S400 01 Nov 17:00:04 17:21:12 74° 183° (S) 02:43:28 145.825 - 145.975 CW/USB, Beacon 145.810 USB
AO-40 01 Nov 17:00:51 21:30:43 47° 187° (S) 03:23:54 Beacon 2401.320
Uosat F 01 Nov 17:13:43 17:17:29 21° 264° (W) 17:21:17 435.120 FM
Hamsat 01 Nov 17:30:17 17:34:28 79° 77° (ENE) 17:38:39 145.90 MHz
AO-7 01 Nov 17:38:17 17:43:46 19° 265° (W) 17:49:19 29.400 - 29.500 MHz
KITSAT 1 01 Nov 17:47:05 17:51:16 15° 41° (NE) 17:55:26 435.175 FM
OPAL 01 Nov 17:50:08 17:55:06 81° 105° (ESE) 18:00:03 ?
STRAND 1 01 Nov 18:11:30 18:14:34 16° 94° (E) 18:17:37 ?
SO-50 01 Nov 18:12:13 18:13:06 10° 45° (NE) 18:14:00 436.795 FM
JAS-2 01 Nov 18:12:37 18:18:03 32° 266° (W) 18:24:07 435.800 - 435.900 CW/SSB, 435.910 FM
RS-15 01 Nov 18:15:42 18:19:17 12° 98° (E) 18:22:51 29.354 - 29.394 USB, Beacon 29.352 USB
SO-67 01 Nov 18:57:06 19:00:31 76° 259° (W) 19:03:57 435.3500 MHz FM
KITSAT 1 01 Nov 19:40:07 19:48:11 70° 61° (ENE) 19:56:12 435.175 FM
STRAND 1 01 Nov 19:49:01 19:53:57 48° 287° (WNW) 19:58:51 ?
SO-50 01 Nov 19:49:27 19:54:20 85° 61° (ENE) 19:59:14 436.795 FM
RS-15 01 Nov 20:18:43 20:29:44 76° 114° (ESE) 20:40:36 29.354 - 29.394 USB, Beacon 29.352 USB
Oscar 11 01 Nov 20:19:38 20:21:18 12° 67° (ENE) 20:22:57 145.825 FM, Beacon 2401.500 USB
HO-68 01 Nov 20:21:38 20:28:41 64° 71° (ENE) 20:35:46 435.675 MHz FM
UOSAT-12 01 Nov 20:26:16 20:29:40 19° 51° (NE) 20:33:01 437.025 FM, 437.400 FM
MaSat-1 01 Nov 21:12:06 21:16:06 83° 112° (ESE) 21:19:43 437.345 MHz
UKube-1 01 Nov 21:18:59 21:23:18 70° 75° (ENE) 21:27:39 145.840 MHz, 145.915 MHz
ZACube-1 01 Nov 21:31:12 21:35:19 35° 73° (ENE) 21:39:23 437.345 MHz
KITSAT 1 01 Nov 21:37:13 21:42:46 21° 257° (WSW) 21:48:20 435.175 FM
Oscar 11 01 Nov 21:52:51 21:57:00 48° 260° (W) 22:01:11 145.825 FM, Beacon 2401.500 USB
UOSAT-12 01 Nov 22:05:34 22:09:58 41° 247° (WSW) 22:14:16 437.025 FM, 437.400 FM
HO-68 01 Nov 22:11:54 22:16:46 19° 266° (W) 22:21:40 435.675 MHz FM
FUNcube-1 01 Nov 22:13:12 22:17:44 73° 259° (WSW) 22:22:11 145.950 - 145.970 MHz USB
RS-15 01 Nov 22:34:01 22:43:05 29° 316° (NW) 22:52:12 29.354 - 29.394 USB, Beacon 29.352 USB
ZACube-1 01 Nov 23:08:49 23:11:45 17° 265° (W) 23:14:39 437.345 MHz
Sapphire 02 Nov 00:04:19 00:05:47 11° 102° (ESE) 00:07:15 437.095 MHz 1200 baud AX-25 AFSK
PCSat 02 Nov 00:23:04 00:26:59 21° 106° (ESE) 00:30:55 145.825 MHz
Oscar 19 02 Nov 00:46:27 00:48:46 13° 93° (E) 00:51:04 437.125 CW, 437.150 USB
PANSAT 02 Nov 01:15:28 01:16:32 11° 156° (SSE) 01:17:36 not established
AO-27 02 Nov 01:27:10 01:29:29 13° 93° (E) 01:31:47 436.795 MHz FM
JAS-1B 02 Nov 01:28:23 01:35:42 47° 101° (E) 01:44:15 435.800 - 435.900 CW/SSB
Oscar 16 02 Nov 01:31:40 01:36:30 42° 99° (E) 01:41:20 437.025 USB, Beacon 2401.1428
Sapphire 02 Nov 01:43:06 01:48:29 73° 296° (WNW) 01:53:54 437.095 MHz 1200 baud AX-25 AFSK
Gurwin Techsat 1B 02 Nov 01:52:44 01:54:38 12° 92° (E) 01:56:32 435.225 FM
AO-Echo 02 Nov 01:52:52 01:57:43 35° 97° (E) 02:02:27 ?
PCSat 02 Nov 02:04:56 02:10:02 42° 300° (WNW) 02:15:11 145.825 MHz
Uribyol 2 02 Nov 02:07:51 02:12:40 38° 99° (E) 02:17:26 436.500 FM
ITAMSAT 1 02 Nov 02:16:11 02:21:08 43° 99° (E) 02:26:02 435.822 SSB
Oscar 19 02 Nov 02:23:23 02:28:23 57° 286° (WNW) 02:33:24 437.125 CW, 437.150 USB
PANSAT 02 Nov 02:52:48 02:56:08 28° 167° (SSE) 02:59:28 not established
AO-27 02 Nov 03:04:11 03:09:19 59° 286° (WNW) 03:14:24 436.795 MHz FM
Oscar 16 02 Nov 03:11:59 03:15:30 19° 293° (WNW) 03:19:01 437.025 USB, Beacon 2401.1428
RS-15 02 Nov 03:14:17 03:20:47 17° 30° (NNE) 03:27:22 29.354 - 29.394 USB, Beacon 29.352 USB
JAS-1B 02 Nov 03:19:32 03:26:01 33° 291° (WNW) 03:33:29 435.800 - 435.900 CW/SSB
Gurwin Techsat 1B 02 Nov 03:29:42 03:34:58 66° 285° (WNW) 03:40:13 435.225 FM
AO-Echo 02 Nov 03:32:03 03:36:12 24° 292° (WNW) 03:40:18 ?
TMSAT-1 02 Nov 03:34:49 03:40:08 80° 284° (WNW) 03:45:25 436.925 FM
Uosat F 02 Nov 03:47:21 03:50:12 15° 94° (E) 03:53:01 435.120 FM
Uribyol 2 02 Nov 03:48:00 03:51:50 21° 293° (WNW) 03:55:39 436.500 FM
AO-7 02 Nov 03:49:11 03:56:23 32° 98° (E) 04:03:32 29.400 - 29.500 MHz
ITAMSAT 1 02 Nov 03:56:40 04:00:15 19° 294° (WNW) 04:03:48 435.822 SSB
Saudisat 1A 02 Nov 04:04:22 04:08:05 28° 112° (ESE) 04:11:49 436.775 MHz
PANSAT 02 Nov 04:32:20 04:35:58 40° 180° (S) 04:39:35 not established
OPAL 02 Nov 05:00:53 05:06:01 90° 255° (WSW) 05:11:06 ?
Hamsat 02 Nov 05:20:52 05:23:53 19° 95° (E) 05:26:53 145.90 MHz
STRAND 1 02 Nov 05:23:53 05:26:56 16° 65° (ENE) 05:29:59 ?
Uosat F 02 Nov 05:24:20 05:29:11 49° 287° (WNW) 05:34:00 435.120 FM
RS-15 02 Nov 05:25:04 05:36:08 59° 57° (ENE) 05:47:40 29.354 - 29.394 USB, Beacon 29.352 USB
JAS-2 02 Nov 05:25:18 05:32:55 52° 99° (E) 05:40:03 435.800 - 435.900 CW/SSB, 435.910 FM
AO-7 02 Nov 05:41:21 05:49:15 50° 293° (WNW) 05:57:10 29.400 - 29.500 MHz
Saudisat 1A 02 Nov 05:44:01 05:47:34 24° 307° (NW) 05:51:09 436.775 MHz
PANSAT 02 Nov 06:12:27 06:15:47 28° 193° (SSW) 06:19:07 not established
